Regional Weather Roundup
Issued by NWS

Home | Current Version | Previous Version | Graphics & Text | Print | Product List | Glossary On
Versions: 1 2 3 4 5 6 7 8 9 10 11 12 13 14 15 16 17 18 19 20 21 22 23 24 25 26 27 28 29 30 31 32 33 34 35 36 37 38 39 40 41 42 43 44 45 46 47 48 49 50
711
ASUS44 KJAN 281710
RWRMS

MISSISSIPPI HOURLY WEATHER ROUNDUP
NATIONAL WEATHER SERVICE JACKSON MS
1100 AM CST WED JAN 28 2015

NOTE: "FAIR: INDICATES FEW OR NO CLOUDS BELOW 12,000 FEET WITH NO
SIGNIFICANT WEATHER AND/OR OBSTRUCTIONS TO VISIBILITY.

MSZ001>002-007>008-010>013-018>021-025>028-034>036-281800-
NORTHWEST MISSISSIPPI

CITY           SKY/WX    TMP DP  RH WIND       PRES   REMARKS
CLARKSDALE     FAIR      48  36  61 SE9       30.30F
CLEVELAND      FAIR      50  38  61 SE7       30.29F
GREENWOOD      SUNNY     53  33  46 VRB6      30.30S
GREENVILLE     SUNNY     52  37  56 SE10      30.29S
GRENADA        FAIR      48  32  53 E8        30.32S
OLIVE BRANCH   MOSUNNY   45  32  61 SE8       30.30F
OXFORD         FAIR      46  28  49 SE8       30.32F
TUNICA         SUNNY     48  32  53 SE8       30.30F
$$

MSZ003>006-009-014>017-022>024-029>033-037>039-281800-
NORTHEAST MISSISSIPPI

CITY           SKY/WX    TMP DP  RH WIND       PRES   REMARKS
COLUMBUS AFB   SUNNY     46  28  50 SE5       30.33S
CORINTH        FAIR      43  30  61 VRB6      30.32S
GOLDN TRIANGLE SUNNY     45  30  57 SE6       30.32S
STARKVILLE     FAIR      46  32  57 SE7       30.32F
TUPELO         SUNNY     45  29  53 SE7       30.33S
$$

MSZ040-058-281800-
CENTRAL MISSISSIPPI

CITY           SKY/WX    TMP DP  RH WIND       PRES   REMARKS
JACKSON INTL   SUNNY     56  32  40 S6        30.30S
JACKSON HAWKNS SUNNY     57  30  35 SE9       30.29F
MERIDIAN KEY   SUNNY     53  27  36 NE7       30.32S
MERIDIAN NAS   SUNNY     50  28  42 E5        30.33S
RAYMOND        FAIR      57  54  88 SE7       30.29F
VICKSBURG      SUNNY     57  37  47 E8        30.29R
$$

MSZ059>079-281800-
SOUTH MISSISSIPPI

CITY           SKY/WX    TMP DP  RH WIND       PRES   REMARKS
BROOKHAVEN     FAIR      57  36  44 E3        30.31S
HATTIESBURG    SUNNY     55  33  43 E7        30.32F
MCCOMB         SUNNY     57  37  47 SE5       30.29F
NATCHEZ        SUNNY     61  37  41 SE8       30.28S
PINE BELT      SUNNY     54  32  43 E7        30.32F
$$

MSZ080>082-281800-
COASTAL MISSISSIPPI

CITY           SKY/WX    TMP DP  RH WIND       PRES   REMARKS
BAY ST LOUIS   SUNNY     59  30  33 E7        30.31S
BILOXI         SUNNY     58  33  39 NE6       30.30R
PASCAGOULA     SUNNY     58  33  39 VRB6      30.31R
GULFPORT       SUNNY     58  33  39 NE8       30.30S
$$



USA.gov is the U.S. government's official web portal to all federal, state and local government web resources and services.